GW0234 Weather Reports


Display with metric or nautical units.
time (UTC)temp
F
wind
direction
speed
MPH
gust
MPH
rain 1hr
in
rain 24hr
in
rain mn
in
humidity
%
barometer
mb
20260507040106 44 0 0.0 2.0 0.00 0.46 0.00 73 1012.4
20260507034604 44 126 1.0 4.0 0.00 0.46 0.46 73 1012.2
20260507033124 44 83 0.0 3.0 0.00 0.46 0.46 72 1012.1
20260507031604 44 0 0.0 2.0 0.00 0.46 0.46 72 1012.0
20260507030110 44 0 0.0 3.0 0.00 0.46 0.46 74 1012.1
20260507024614 44 0 1.0 2.0 0.00 0.46 0.46 73 1011.9
20260507023102 44 0 0.0 2.0 0.00 0.46 0.46 74 1011.7
20260507021558 44 0 0.0 1.0 0.00 0.46 0.46 76 1011.5
20260507020104 44 0 0.0 2.0 0.00 0.46 0.46 75 1011.4
20260507014605 45 0 0.0 1.0 0.00 0.52 0.46 75 1011.3
20260507013103 45 0 0.0 1.0 0.00 0.52 0.46 75 1011.2
20260507011559 46 0 0.0 1.0 0.00 0.52 0.46 72 1011.4
20260507010056 46 0 0.0 1.0 0.00 0.52 0.46 73 1011.3
20260507004557 47 0 0.0 1.0 0.00 0.52 0.46 71 1011.3
20260507003104 48 0 0.0 2.0 0.00 0.52 0.46 69 1011.4
20260507001602 48 186 0.0 7.0 0.00 0.52 0.46 67 1011.2
20260507000056 48 0 0.0 6.0 0.00 0.52 0.46 65 1011.6
20260506234605 49 123 1.0 4.0 0.00 0.52 0.46 63 1011.2
20260506233058 49 124 3.0 8.0 0.00 0.52 0.46 61 1011.2
20260506231600 50 117 0.0 4.0 0.00 0.52 0.46 63 1010.7
20260506224602 51 136 1.0 8.0 0.00 0.52 0.46 61 1010.3
20260506223055 51 132 1.0 6.0 0.00 0.52 0.46 62 1010.1
20260506221557 51 156 2.0 10.0 0.00 0.52 0.46 55 1010.2
20260506220101 51 153 2.0 9.0 0.00 0.52 0.46 59 1010.1
20260506214559 52 180 2.0 7.0 0.00 0.52 0.46 57 1009.7
20260506213055 52 188 3.0 8.0 0.00 0.52 0.46 58 1009.3
20260506211554 52 131 3.0 8.0 0.00 0.52 0.46 60 1009.4
20260506210055 53 111 2.0 10.0 0.00 0.52 0.46 60 1009.3
20260506204556 52 192 1.0 6.0 0.00 0.52 0.46 70 1008.6
20260506203056 51 148 1.0 8.0 0.00 0.52 0.46 69 1008.9
20260506201558 51 140 3.0 8.0 0.00 0.52 0.46 68 1009.0
20260506200059 52 118 2.0 8.0 0.00 0.52 0.46 71 1009.0
20260506194556 52 98 3.0 8.0 0.00 0.52 0.46 71 1009.0
20260506193055 51 149 1.0 7.0 0.00 0.52 0.46 72 1008.8
20260506191555 51 110 2.0 7.0 0.00 0.52 0.46 70 1008.9
20260506190058 52 157 1.0 7.0 0.00 0.52 0.46 71 1008.8
20260506184557 52 118 2.0 7.0 0.00 0.52 0.46 75 1008.7
20260506183056 51 211 1.0 9.0 0.00 0.52 0.46 78 1008.5
20260506181559 51 172 1.0 8.0 0.00 0.52 0.46 79 1008.5
20260506180058 51 111 3.0 9.0 0.00 0.52 0.46 78 1008.5
20260506174557 51 51 3.0 11.0 0.00 0.52 0.46 77 1008.5
20260506173124 51 158 2.0 8.0 0.00 0.52 0.46 77 1008.4
20260506171610 52 319 2.0 9.0 0.00 0.52 0.46 79 1008.4
20260506170055 52 0 1.0 7.0 0.00 0.52 0.46 79 1008.1
20260506164606 52 0 1.0 5.0 0.00 0.52 0.46 82 1008.0
20260506163106 51 208 1.0 8.0 0.00 0.52 0.46 84 1007.8
20260506161636 50 88 2.0 7.0 0.00 0.52 0.46 85 1007.9
20260506160108 49 99 4.0 9.0 0.00 0.52 0.46 84 1007.7
20260506154600 49 168 2.0 9.0 0.00 0.52 0.46 86 1007.5
20260506153059 49 145 3.0 8.0 0.00 0.52 0.46 86 1007.4
20260506151555 49 108 1.0 10.0 0.00 0.52 0.46 88 1007.1
20260506150057 49 206 2.0 7.0 0.00 0.52 0.46 89 1006.9
20260506144556 49 116 2.0 7.0 0.00 0.52 0.46 88 1007.0
20260506143057 49 0 1.0 8.0 0.00 0.52 0.46 89 1006.7
20260506141556 49 157 1.0 7.0 0.01 0.52 0.46 90 1006.4
20260506140056 48 155 0.0 8.0 0.02 0.52 0.46 90 1006.1
20260506134602 48 105 2.0 6.0 0.02 0.52 0.46 90 1006.4
20260506133103 47 0 1.0 3.0 0.02 0.52 0.46 90 1006.4
20260506131610 47 139 2.0 9.0 0.03 0.52 0.45 89 1006.4
20260506130149 47 106 1.0 5.0 0.03 0.51 0.44 89 1005.7
20260506124606 47 168 1.0 7.0 0.03 0.51 0.44 89 1005.2
20260506123105 48 165 2.0 7.0 0.03 0.51 0.44 89 1005.5
20260506121558 48 110 2.0 5.0 0.02 0.49 0.42 89 1005.9
20260506120109 48 85 0.0 7.0 0.03 0.48 0.41 88 1005.5
20260506114556 48 125 1.0 6.0 0.04 0.48 0.41 88 1005.4
20260506113058 49 134 2.0 8.0 0.07 0.48 0.41 88 1004.8
20260506111557 50 202 2.0 7.0 0.10 0.47 0.40 88 1004.7
20260506104557 51 175 2.0 9.0 0.09 0.44 0.37 88 1004.6
20260506103059 52 165 2.0 7.0 0.07 0.41 0.34 88 1004.4
20260506101608 53 119 1.0 9.0 0.05 0.37 0.30 88 1003.9
20260506100119 55 213 1.0 4.0 0.07 0.35 0.28 89 1004.0
20260506094556 55 19 2.0 8.0 0.11 0.36 0.28 89 1003.9
20260506093100 55 338 4.0 9.0 0.13 0.35 0.27 89 1003.7
20260506091559 56 355 2.0 8.0 0.13 0.33 0.25 89 1003.9
20260506090058 56 5 2.0 5.0 0.10 0.29 0.21 89 1004.2
20260506084623 56 315 4.0 9.0 0.06 0.25 0.17 89 1004.4
20260506083056 56 360 1.0 6.0 0.03 0.22 0.14 89 1004.3
20260506081601 56 25 1.0 5.0 0.01 0.20 0.12 89 1004.3
20260506073056 56 5 1.0 5.0 0.01 0.19 0.11 89 1004.3
20260506071559 56 304 2.0 8.0 0.02 0.19 0.11 89 1004.5
20260506061554 55 13 1.0 3.0 0.06 0.17 0.09 89 1005.2
20260506050103 54 0 0.0 1.0 0.01 0.09 0.01 87 1006.6
20260506044702 54 0 0.0 1.0 0.00 0.08 0.00 87 1006.5
20260506043108 54 0 0.0 1.0 0.00 0.08 0.00 86 1006.6
20260506041604 54 0 0.0 0.0 0.00 0.08 0.00 86 1006.8